Flag for Germany Weather past 2 weeks in Heilbronn, Baden-Württemberg, Germany

Now
84 °F

Passing clouds.


Feels Like: 86 °F
Forecast: 66 / 83 °F
Wind: 3 mph from West

Location: Oehringen

Current Time: Jul 5, 2015 at 11:44:47 PM

Latest Report: Jul 5, 2015 at 11:00 PM


Visibility: 15 mi

Pressure: 29.87 "Hg

Humidity: 53%

Dew point: 65 °F

Location of HeilbronnLocation

Historic Weather in Heilbronn — Graph

°F

Heilbronn temperature yesterday

Maximum temperature yesterday: 97 °F (at 6:00 PM)
Minimum temperature yesterday: 71 °F (at 6:00 AM)
Average temperature yesterday: 85 °F

Past Weeks' High & Low Weather Summary

 TemperatureHumidityPressure
High100 °F (Jul 5, 5:00 PM)98% (Jun 27, 11:00 AM)30.24 "Hg (Jun 27, 11:00 AM)
Low49 °F (Jun 23, 7:00 AM)21% (Jul 5, 3:00 PM)29.75 "Hg (Jun 23, 2:00 AM)
Average70 °F65%30.09 "Hg
* Reported Jun 20 10:00 PM — Jul 5 10:00 PM, Heilbronn, Weather by CustomWeather, © 2015

Note: Actual official high and low records may vary slightly from our data, if they occured in-between our weather recording intervals... More about our weather records

Advertising

Heilbronn weather history for previous 24 hours

 ConditionsComfort  
Time TempWeatherWind HumidityBarometerVisibility
10:00 PM
Sun, Jul 5
88 °FPassing clouds.1 mph47%29.85 "Hg15 mi
9:00 PM92 °FSunny.1 mph40%29.82 "Hg16 mi
8:00 PM95 °FSunny.3 mph33%29.82 "Hg17 mi
7:00 PM98 °FSunny.3 mph28%29.83 "Hg17 mi
6:00 PM99 °FSunny.5 mph25%29.84 "Hg25 mi
5:00 PM100 °FSunny.3 mph22%29.86 "Hg19 mi
4:00 PM100 °FSunny.3 mph22%29.88 "Hg17 mi
3:00 PM100 °FSunny.3 mph21%29.91 "Hg19 mi
2:00 PM99 °FSunny.3 mph23%29.93 "Hg25 mi
1:00 PM94 °FSunny.2 mph34%29.95 "Hg14 mi
12:00 PM93 °FSunny.2 mph39%29.97 "Hg15 mi
11:00 AM90 °FSunny.1 mph39%29.99 "Hg14 mi
10:00 AM85 °FSunny.1 mph47%30.01 "Hg14 mi
9:00 AM80 °FSunny.1 mph58%30.03 "Hg11 mi
8:00 AM74 °FSunny.No wind69%30.05 "Hg8 mi
7:00 AM70 °FSunny.1 mph79%30.06 "Hg8 mi
5:00 AM70 °FClear.1 mph78%30.05 "Hg8 mi
4:00 AM71 °FPassing clouds.1 mph76%30.06 "Hg9 mi
3:00 AM72 °FPassing clouds.2 mph75%30.07 "Hg8 mi
2:00 AM74 °FClear.1 mph74%30.07 "Hg8 mi
1:00 AM75 °FClear.1 mph70%30.07 "Hg12 mi
12:00 AM76 °FClear.2 mph69%30.07 "Hg11 mi
11:00 PM
Sat, Jul 4
79 °FClear.2 mph64%30.06 "Hg13 mi
Weather by CustomWeather, © 2015

See weather overviewHow to use our weather pages